Location: Palmerston North
(40.3500°S, 175.6170°E)
Time: 22:09:14
(UTC+13:00)

USA 32 - Pass Details

Date: 24 January 2019
Orbit: 777 x 783 km, 85.0° (Epoch: 21 September)

Event Time Altitude Azimuth Distance (km) Brightness Sun altitude
Rises 21:31:30 0° 352° (N) 3,254 7.0 -8.7°
Reaches altitude 10° 21:33:50 10° 350° (N) 2,336 6.3 -9.1°
Maximum altitude 21:39:04 72° 265° (W) 831 4.4 -9.9°
Drops below altitude 10° 21:44:24 10° 180° (S) 2,372 7.1 -10.7°
Sets 21:46:48 0° 177° (S) 3,308 7.8 -11.1°
